This is the latest recevied weather packets stored in our database for station/object F1ZRP-13. If no packets are shown the sender has not sent any weather packets the latest 10 day(s).
| Time | Temp. | Humidity | Pressure | Rain* | Wind** | Luminosity | Snow |
|---|---|---|---|---|---|---|---|
| 1777772811 | 14.44° C | 59% | 1015.5 hPa | - | - | - | - |
| 1777771721 | 14.44° C | 61% | 1015.6 hPa | - | - | - | - |
| 1777770751 | 14.44° C | 61% | 1015.7 hPa | - | - | - | - |
| 1777769996 | 14.44° C | 59% | 1015.8 hPa | - | - | - | - |
| 1777769059 | 15.56° C | 55% | 1015.6 hPa | - | - | - | - |
| 1777768165 | 15.56° C | 57% | 1015.8 hPa | - | - | - | - |
| 1777767132 | 15.56° C | 56% | 1015.9 hPa | - | - | - | - |
| 1777766199 | 15.56° C | 57% | 1016.2 hPa | - | - | - | - |
| 1777765313 | 15.56° C | 54% | 1016.2 hPa | - | - | - | - |
| 1777764429 | 16.11° C | 55% | 1016.2 hPa | - | - | - | - |
| 1777763321 | 16.11° C | 54% | 1016.4 hPa | - | - | - | - |
| 1777762440 | 16.11° C | 54% | 1016.4 hPa | - | - | - | - |
| 1777761649 | 16.67° C | 53% | 1016.4 hPa | - | - | - | - |
| 1777760826 | 16.67° C | 51% | 1016.5 hPa | - | - | - | - |
| 1777759829 | 17.22° C | 51% | 1016.4 hPa | - | - | - | - |
| 1777758876 | 17.22° C | 51% | 1016.4 hPa | - | - | - | - |
| 1777757832 | 17.22° C | 53% | 1016.5 hPa | - | - | - | - |
| 1777757054 | 17.22° C | 52% | 1016.5 hPa | - | - | - | - |
| 1777756274 | 17.22° C | 52% | 1016.5 hPa | - | - | - | - |
| 1777755353 | 17.22° C | 52% | 1016.6 hPa | - | - | - | - |
| 1777754319 | 17.78° C | 51% | 1016.6 hPa | - | - | - | - |
| 1777753319 | 17.78° C | 51% | 1016.6 hPa | - | - | - | - |
| 1777752645 | 18.33° C | 51% | 1016.6 hPa | - | - | - | - |
| 1777751761 | 18.33° C | 52% | 1016.5 hPa | - | - | - | - |
| 1777750977 | 18.89° C | 52% | 1016.5 hPa | - | - | - | - |
* Rain since midnight (hover to see other rain measurements)
** Current wind speed in m/s (hover to see current wind gust speed)